Weather History for PAWI - October, 2013

Change the Weather History Date:

Thursday, October 31, 2013

  Actual Average (PABR) Record (PABR)
Temperature  
Mean Temperature 8 °F -  
Max Temperature 16 °F 13 °F 34 °F (2002)
Min Temperature 0 °F - -21 °F (1983)
Degree Days  
Heating Degree Days 57 57  
Month to date heating degree days 1482  
Since 1 July heating degree days 4022  
Cooling Degree Days 0    
Month to date cooling degree days  
Year to date cooling degree days  
Moisture  
Dew Point 3 °F    
Average Humidity 84    
Maximum Humidity 92    
Minimum Humidity 79    
Precipitation  
Precipitation 0.00 in 0.01 in 0.13 in (1949)
Month to date precipitation 0.41  
Year to date precipitation 4.18  
Snow  
Snow 0.00 in 0.30 in 2.20 in (1997)
Month to date snowfall 9.1  
Since 1 July snowfall 14.6  
Since 1 September snowfall 13.5  
Snow Depth -    
Sea Level Pressure  
Sea Level Pressure 29.65 in    
Wind  
Wind Speed 5 mph (SE)    
Max Wind Speed 9 mph    
Max Gust Speed -    
Visibility 6 miles    
Events Fog , Snow    
T = Trace of Precipitation, MM = Missing Value Source: NWS Daily Summary

Daily Weather History Graph

Daily Weather History Graph

Search for Another Location

Airport or City:

Trip Planner

Search our weather history database for the weather conditions in past years. The results will help you decide how hot, cold, wet, or windy it might be!

Date:

Astronomy

Oct. 31, 2013 Rise Set
Actual Time 11:15 AM AKDT 5:30 PM AKDT
Civil Twilight 9:58 AM AKDT 6:47 PM AKDT
Nautical Twilight 8:41 AM AKDT 8:03 PM AKDT
Astronomical Twilight 7:28 AM AKDT 9:16 PM AKDT
Moon 6:38 AM AKDT 5:18 PM AKDT
Length of Visible Light 8h 49m
Length of Day
6h 14m
Waning Crescent, 9% of the Moon is Illuminated
Oct 31
Waning Crescent
Nov 3
New
Nov 9
First Quarter
Nov 17
Full
Nov 25
Last Quarter

Hourly Weather History & Observations

Time (AKDT) Temp. Windchill Dew Point Humidity Pressure Visibility Wind Dir Wind Speed Gust Speed Precip Events Conditions
12:53 AM 15.1 °F 5.2 °F 10.9 °F 84% 29.55 in 10.0 mi East 6.9 mph - 0.00 in   Overcast
1:53 AM 16.0 °F 7.4 °F 10.9 °F 81% 29.55 in 7.0 mi East 5.8 mph - 0.00 in Snow Light Snow
2:53 AM 16.0 °F 7.4 °F 12.0 °F 84% 29.56 in 8.0 mi East 5.8 mph - 0.00 in Snow Light Snow
3:53 AM 16.0 °F 8.8 °F 10.9 °F 81% 29.57 in 6.0 mi East 4.6 mph - 0.00 in Snow Light Snow
4:53 AM 15.1 °F 7.7 °F 10.9 °F 84% 29.57 in 8.0 mi East 4.6 mph - 0.00 in Snow Light Snow
5:53 AM 15.1 °F 6.4 °F 10.9 °F 84% 29.57 in 10.0 mi ESE 5.8 mph - 0.00 in   Overcast
6:53 AM 12.9 °F 5.2 °F 10.0 °F 88% 29.59 in 10.0 mi ESE 4.6 mph - N/A   Overcast
7:53 AM 12.9 °F - 8.1 °F 81% 29.60 in 10.0 mi Calm Calm - N/A   Partly Cloudy
8:53 AM 10.0 °F 3.6 °F 6.1 °F 84% 29.61 in 6.0 mi SE 3.5 mph - N/A   Overcast
9:03 AM 8.6 °F 2.0 °F 5.0 °F 85% 29.61 in 1.8 mi SE 3.5 mph - N/A   Overcast
9:16 AM 8.6 °F 2.0 °F 3.2 °F 79% 29.61 in 0.8 mi ESE 3.5 mph - N/A   Scattered Clouds
9:49 AM 3.2 °F -6.2 °F 1.4 °F 92% 29.61 in 1.0 mi SE 4.6 mph - N/A   Overcast
9:53 AM 5.0 °F -4.1 °F 1.9 °F 87% 29.61 in 0.8 mi SE 4.6 mph - N/A   Overcast
10:29 AM 6.8 °F -2.0 °F 3.2 °F 85% 29.62 in 3.0 mi SE 4.6 mph - N/A   Overcast
10:53 AM 6.1 °F -2.8 °F 1.9 °F 83% 29.62 in 10.0 mi SE 4.6 mph - N/A   Overcast
11:19 AM 6.8 °F -0.1 °F 1.4 °F 79% 29.63 in 10.0 mi SE 3.5 mph - N/A   Overcast
11:37 AM 5.0 °F -5.6 °F 1.4 °F 85% 29.63 in 10.0 mi SE 5.8 mph - N/A   Overcast
11:50 AM 3.2 °F -9.1 °F -0.4 °F 85% 29.63 in 1.8 mi SE 6.9 mph - N/A   Overcast
11:53 AM 3.9 °F -8.2 °F -0.0 °F 84% 29.64 in 1.5 mi ESE 6.9 mph - N/A   Overcast
11:56 AM 3.2 °F -9.1 °F -0.4 °F 85% 29.64 in 1.5 mi SE 6.9 mph - N/A   Overcast
12:17 PM 3.2 °F -9.1 °F -0.4 °F 85% 29.64 in 1.8 mi SE 6.9 mph - N/A   Overcast
12:20 PM 3.2 °F -9.1 °F -0.4 °F 85% 29.64 in 3.0 mi SE 6.9 mph - N/A   Overcast
12:51 PM 3.2 °F -4.2 °F -0.4 °F 85% 29.65 in 2.5 mi SSE 3.5 mph - N/A   Overcast
12:53 PM 3.9 °F - -0.0 °F 84% 29.65 in 2.0 mi Calm Calm - N/A   Overcast
1:53 PM -0.0 °F -13.0 °F -4.0 °F 83% 29.67 in 0.2 mi SE 6.9 mph - 0.00 in Fog Light Freezing Fog
2:12 PM 1.4 °F -9.9 °F -2.2 °F 85% 29.67 in 0.8 mi SE 5.8 mph - N/A   Overcast
2:23 PM 3.2 °F -4.2 °F -0.4 °F 85% 29.67 in 1.5 mi ESE 3.5 mph - N/A   Overcast
2:28 PM 3.2 °F -6.2 °F -0.4 °F 85% 29.67 in 3.0 mi SE 4.6 mph - N/A   Overcast
2:53 PM 3.9 °F -8.2 °F -0.0 °F 84% 29.68 in 10.0 mi SE 6.9 mph - N/A   Overcast
3:36 PM 3.2 °F -4.2 °F -0.4 °F 85% 29.68 in 10.0 mi SE 3.5 mph - N/A   Overcast
3:53 PM 3.9 °F -10.4 °F -0.0 °F 84% 29.69 in 10.0 mi SE 9.2 mph - N/A   Overcast
4:53 PM 1.9 °F -10.6 °F -2.0 °F 83% 29.70 in 10.0 mi SSE 6.9 mph - N/A   Overcast
5:53 PM 3.0 °F -6.4 °F -0.9 °F 84% 29.71 in 10.0 mi SE 4.6 mph - N/A   Overcast
6:53 PM 3.9 °F -10.4 °F -0.0 °F 84% 29.72 in 10.0 mi SE 9.2 mph - N/A   Overcast
7:53 PM 1.9 °F -12.9 °F -2.0 °F 83% 29.73 in 10.0 mi SE 9.2 mph - N/A   Overcast
8:53 PM 7.0 °F -4.5 °F 3.0 °F 84% 29.74 in 10.0 mi SE 6.9 mph - N/A   Overcast
9:39 PM 10.4 °F -1.5 °F 5.0 °F 79% 29.75 in 10.0 mi SE 8.1 mph - N/A   Overcast
9:53 PM 9.0 °F -3.2 °F 5.0 °F 84% 29.75 in 10.0 mi SE 8.1 mph - N/A   Overcast
10:53 PM 3.9 °F -6.9 °F -0.0 °F 84% 29.77 in 10.0 mi SSE 5.8 mph - N/A   Overcast
11:53 PM 1.9 °F -10.6 °F -2.0 °F 83% 29.78 in 10.0 mi SSE 6.9 mph - N/A   Clear